Location: Auckland
(36.8670°S, 174.7670°E)
Time: 00:23:52
(UTC+12:00)

A-11 Canister half - Pass Details

Date: 25 July 2019
Orbit: 1526 x 1683 km, 47.3° (Epoch: 18 August)

Event Time Altitude Azimuth Distance (km) Brightness Sun altitude
Rises 05:53:57 0° 341° (NNW) 4,662 11.5 -18.2°
Reaches altitude 10° 05:57:21 10° 350° (N) 3,685 11.0 -17.6°
Maximum altitude 06:05:20 34° 50° (NE) 2,348 10.6 -16.0°
Drops below altitude 10° 06:13:27 10° 110° (ESE) 3,759 11.9 -14.4°
Sets 06:16:56 0° 118° (ESE) 4,767 12.4 -13.8°
